Location: T. Spence Memorial Observatory
(32.7356°N, 82.2098°W)
Time: 09:37:13
(UTC-04:00)

Cosmos 2219 - Visible Passes

Search period start: 27 May 2017 00:00
Search period end: 06 June 2017 00:00
Orbit: 835 x 858 km, 71.1° (Epoch: 26 May)

Date Brightness Start Highest point End Pass type
(mag) Time Alt. Az. Time Alt. Az. Time Alt. Az.
27 May 4.2 02:17:49 42° N 02:17:49 42° N 02:21:31 10° NNE visible
28 May 4.3 02:04:29 40° N 02:04:29 40° N 02:08:03 10° NNE visible
29 May 4.4 01:51:07 39° N 01:51:07 39° N 01:54:36 10° NNE visible
30 May 4.4 01:37:43 38° N 01:37:43 38° N 01:41:09 10° NNE visible
31 May 4.4 01:24:17 38° NNE 01:24:17 38° NNE 01:27:41 10° NNE visible
01 Jun 4.4 01:10:49 38° NNE 01:10:49 38° NNE 01:14:14 10° NNE visible
02 Jun 4.3 00:57:18 39° NNE 00:57:18 39° NNE 01:00:46 10° NNE visible
03 Jun 4.2 00:43:44 41° NNE 00:43:44 41° NNE 00:47:19 10° NNE visible
03 Jun 5.7 02:25:58 10° WNW 02:26:35 10° NW 02:27:12 10° NW visible
04 Jun 4.1 00:30:08 44° NNE 00:30:08 44° NNE 00:33:51 10° NNE visible
04 Jun 5.7 02:12:03 10° WNW 02:13:06 10° NW 02:14:10 10° NW visible
05 Jun 3.9 00:16:27 47° NNE 00:16:27 47° NNE 00:20:24 10° NNE visible
05 Jun 5.7 01:58:19 10° WNW 01:59:37 11° NW 02:00:59 10° NW visible
